Location: Katzenstein
(51.7484°N, 10.2155°E)
Time: 02:06:51
(UTC+00:00)

Cosmos 1727 Rocket - Pass Details

Date: 17 February 2020
Orbit: 962 x 995 km, 82.9° (Epoch: 03 April)

Event Time Altitude Azimuth Distance (km) Brightness Sun altitude
Rises 04:31:53 0° 190° (S) 3,651 6.9 -19.0°
Reaches altitude 10° 04:34:23 10° 191° (S) 2,704 6.2 -18.6°
Maximum altitude 04:40:36 84° 280° (W) 976 3.9 -17.7°
Drops below altitude 10° 04:46:49 10° 9° (N) 2,711 6.5 -16.7°
Sets 04:49:20 0° 10° (N) 3,661 7.2 -16.3°
